Location: New Town
(33.2710°N, 90.7534°W)
Time: 00:13:17
(UTC+00:00)

Envisat - Visible Passes

Search period start: 20 April 2021 00:00
Search period end: 30 April 2021 00:00
Orbit: 764 x 766 km, 98.1° (Epoch: 19 April)

Date Brightness Start Highest point End Pass type
(mag) Time Alt. Az. Time Alt. Az. Time Alt. Az.
20 Apr 5.9 10:22:25 10° ENE 10:25:17 15° E 10:28:07 10° SE visible
22 Apr 5.2 10:46:30 10° NE 10:50:50 28° E 10:55:08 10° SSE visible
23 Apr 6.1 10:12:17 10° ENE 10:13:43 11° E 10:15:10 10° ESE visible
25 Apr 5.6 10:35:28 10° NE 10:39:19 22° E 10:43:09 10° SE visible
28 Apr 5.8 10:24:37 10° NE 10:27:47 16° E 10:30:56 10° SE visible
